Tracking 29747 objects as of 10-Oct-2024
HD Live streaming from Space Station
objects crossing your sky now

STARLINK-11233

Track STARLINK-11233 now!
10-day predictions
STARLINK-11233 is classified as:


NORAD ID: 61061
Int'l Code: 2024-164M
Perigee: 366.2 km
Apogee: 367.4 km
Inclination: 53.2 °
Period: 91.7 minutes
Semi major axis: 6737 km
RCS: Unknown
Launch date: September 13, 2024
Source: United States (US)
Launch site: AIR FORCE WESTERN TEST RANGE (AFWTR)
Your satellite tracking list
Your tracking list is empty




NASA's NSSDC Master Catalog

Two Line Element Set (TLE):
1 61061U 24164M   24283.91667824 -.00033021  00000-0 -26857-3 0  9995
2 61061  53.1579 333.9860 0000883  45.6712 148.5607 15.69729470  5446
Source of the keplerian elements: AFSPC